GW2298 Weather Reports


time (UTC)temp
C
wind
direction
speed
KPH
gust
KPH
rain 1hr
cm
rain 24hr
cm
rain mn
cm
humidity
%
barometer
mb
20260503031050 16 319 3.2 3.2 0.00 0.00 0.00 49 4459.9
20260503030545 16 315 0.0 0.0 0.00 0.00 0.00 48 4459.9
20260503030043 17 315 0.0 0.0 0.00 0.00 0.00 41 4459.9
20260503025539 16 243 0.0 0.0 0.00 0.00 0.00 45 4459.9
20260503025037 17 243 0.0 0.0 0.00 0.00 0.00 47 4459.9
20260503024533 18 243 0.0 3.2 0.00 0.00 0.00 39 4459.9
20260503024030 18 243 0.0 3.2 0.00 0.00 0.00 35 4459.9
20260503023527 18 243 0.0 0.0 0.00 0.00 0.00 35 4459.9
20260503023025 18 243 0.0 0.0 0.00 0.00 0.00 37 4459.9
20260503022520 18 249 3.2 3.2 0.00 0.00 0.00 37 4459.9
20260503022015 19 206 0.0 0.0 0.00 0.00 0.00 36 4459.9
20260503021512 19 238 4.8 4.8 0.00 0.00 0.00 34 4459.9
20260503021009 20 226 3.2 3.2 0.00 0.00 0.00 35 4459.9
20260503020507 20 224 4.8 4.8 0.00 0.00 0.00 32 4459.5
20260503020003 20 260 1.6 3.2 0.00 0.00 0.00 33 4459.9
20260503015500 20 293 4.8 4.8 0.00 0.00 0.00 32 4459.5
20260503014956 20 267 0.0 3.2 0.00 0.00 0.00 33 4459.9
20260503014453 20 267 0.0 0.0 0.00 0.00 0.00 32 4459.9
20260503013951 21 309 3.2 4.8 0.00 0.00 0.00 31 4459.9
20260503013448 21 298 6.4 8.0 0.00 0.00 0.00 32 4459.5
20260503012945 21 184 3.2 4.8 0.00 0.00 0.00 31 4459.5
20260503012443 21 212 1.6 3.2 0.00 0.00 0.00 34 4459.5
20260503011938 21 230 0.0 3.2 0.00 0.00 0.00 32 4459.9
20260503011436 20 240 4.8 4.8 0.00 0.00 0.00 33 4459.9
20260503010933 21 256 4.8 4.8 0.00 0.00 0.00 33 4459.9
20260503010429 21 168 3.2 4.8 0.00 0.00 0.00 33 4459.5
20260503005927 21 101 8.0 11.3 0.00 0.00 0.00 31 4459.9
20260503005424 21 135 4.8 8.0 0.00 0.00 0.00 30 4459.9
20260503004921 22 243 1.6 3.2 0.00 0.00 0.00 33 4459.5
20260503004417 21 238 0.0 3.2 0.00 0.00 0.00 32 4459.5
20260503003915 21 227 0.0 0.0 0.00 0.00 0.00 34 4459.5
20260503003412 21 185 1.6 3.2 0.00 0.00 0.00 31 4459.9
20260503002909 22 228 3.2 3.2 0.00 0.00 0.00 31 4459.5
20260503002406 22 258 6.4 8.0 0.00 0.00 0.00 29 4459.9
20260503001902 22 238 4.8 4.8 0.00 0.00 0.00 28 4459.9
20260503001359 22 219 1.6 3.2 0.00 0.00 0.00 30 4459.9
20260503000857 23 230 4.8 4.8 0.00 0.00 0.00 27 4459.9
20260503000354 23 225 6.4 8.0 0.00 0.00 0.00 25 4459.9
20260502235850 23 210 3.2 4.8 0.00 0.00 0.00 25 4459.9
20260502235348 23 211 22.5 24.1 0.00 0.00 0.00 30 4459.5
20260502234845 23 284 0.0 3.2 0.00 0.00 0.00 26 4459.9
20260502234341 23 143 3.2 3.2 0.00 0.00 0.00 29 4459.9
20260502233838 23 239 1.6 3.2 0.00 0.00 0.00 25 4459.9
20260502233334 23 324 11.3 16.1 0.00 0.00 0.00 26 4459.9
20260502232831 23 191 3.2 4.8 0.00 0.00 0.00 29 4459.9
20260502232328 23 160 3.2 3.2 0.00 0.00 0.00 28 4460.2
20260502231824 23 198 4.8 4.8 0.00 0.00 0.00 26 4460.2
20260502231322 23 168 9.7 14.5 0.00 0.00 0.00 29 4460.2
20260502230820 23 231 4.8 4.8 0.00 0.00 0.00 27 4460.2
20260502230318 23 283 4.8 4.8 0.00 0.00 0.00 27 4460.2
20260502225814 23 56 4.8 4.8 0.00 0.00 0.00 28 4460.5
20260502225311 23 204 4.8 4.8 0.00 0.00 0.00 28 4460.5
20260502224808 24 188 4.8 8.0 0.00 0.00 0.00 28 4460.5
20260502224304 24 185 1.6 3.2 0.00 0.00 0.00 31 4460.5
20260502223802 24 212 4.8 4.8 0.00 0.00 0.00 27 4461.0
20260502223300 24 224 8.0 8.0 0.00 0.00 0.00 24 4461.0
20260502222757 24 198 1.6 3.2 0.00 0.00 0.00 29 4461.0
20260502222254 23 321 0.0 3.2 0.00 0.00 0.00 26 4461.3
20260502221750 23 333 8.0 11.3 0.00 0.00 0.00 24 4461.0
20260502221246 22 4 3.2 4.8 0.00 0.00 0.00 28 4461.3
20260502220743 23 4 8.0 8.0 0.00 0.00 0.00 25 4461.3
20260502220239 23 6 9.7 14.5 0.00 0.00 0.00 28 4461.3
20260502215736 23 284 0.0 0.0 0.00 0.00 0.00 24 4461.7
20260502215233 23 280 3.2 3.2 0.00 0.00 0.00 29 4461.3
20260502214731 22 309 3.2 3.2 0.00 0.00 0.00 23 4461.7
20260502214227 22 316 4.8 4.8 0.00 0.00 0.00 23 4461.7
20260502213725 22 173 3.2 3.2 0.00 0.00 0.00 25 4461.7
20260502213222 22 188 8.0 8.0 0.00 0.00 0.00 24 4461.7
20260502212721 23 199 3.2 4.8 0.00 0.00 0.00 24 4461.7
20260502212218 23 193 0.0 0.0 0.00 0.00 0.00 24 4461.7
20260502211714 22 235 4.8 4.8 0.00 0.00 0.00 24 4461.7
20260502211211 22 204 4.8 4.8 0.00 0.00 0.00 24 4462.0
20260502210708 22 45 3.2 4.8 0.00 0.00 0.00 24 4461.7
20260502210205 22 44 4.8 4.8 0.00 0.00 0.00 24 4462.0
20260502205703 22 62 1.6 3.2 0.00 0.00 0.00 30 4462.0
20260502205159 22 0 0.0 0.0 0.00 0.00 0.00 24 4462.0
20260502204655 22 0 3.2 3.2 0.00 0.00 0.00 25 4462.4
20260502204154 22 0 3.2 4.8 0.00 0.00 0.00 26 4462.0
20260502203650 22 358 0.0 3.2 0.00 0.00 0.00 27 4462.4
20260502203149 21 52 0.0 3.2 0.00 0.00 0.00 28 4462.4
20260502202643 21 38 3.2 4.8 0.00 0.00 0.00 27 4462.4
20260502202141 21 39 0.0 0.0 0.00 0.00 0.00 28 4462.4
20260502201638 20 342 3.2 4.8 0.00 0.00 0.00 30 4462.4
20260502201134 20 0 3.2 3.2 0.00 0.00 0.00 28 4462.8
20260502200630 20 0 3.2 3.2 0.00 0.00 0.00 31 4462.8
20260502200127 20 339 4.8 4.8 0.00 0.00 0.00 31 4462.4
20260502195626 20 324 0.0 3.2 0.00 0.00 0.00 33 4462.8
20260502195121 20 15 3.2 3.2 0.00 0.00 0.00 30 4462.8
20260502194618 20 22 1.6 3.2 0.00 0.00 0.00 34 4463.1
20260502194114 19 335 0.0 3.2 0.00 0.00 0.00 35 4463.1
20260502193611 19 338 4.8 8.0 0.00 0.00 0.00 37 4463.1
20260502193108 18 46 1.6 3.2 0.00 0.00 0.00 40 4463.1
20260502192604 18 46 3.2 3.2 0.00 0.00 0.00 32 4463.4
20260502192102 18 47 3.2 3.2 0.00 0.00 0.00 36 4463.4
20260502191558 18 51 3.2 3.2 0.00 0.00 0.00 35 4463.4
20260502191056 17 29 0.0 0.0 0.00 0.00 0.00 37 4463.4
20260502190553 17 59 0.0 0.0 0.00 0.00 0.00 39 4463.9
20260502190050 17 258 0.0 3.2 0.00 0.00 0.00 36 4463.9
20260502185544 17 352 1.6 3.2 0.00 0.00 0.00 38 4463.9
20260502185042 17 352 4.8 4.8 0.00 0.00 0.00 39 4463.9
20260502184538 17 49 4.8 4.8 0.00 0.00 0.00 37 4463.9
20260502184034 16 47 0.0 0.0 0.00 0.00 0.00 40 4463.9
20260502183530 17 1 0.0 3.2 0.00 0.00 0.00 41 4464.2
20260502183026 17 240 3.2 3.2 0.00 0.00 0.00 36 4464.2
20260502182521 16 16 0.0 0.0 0.00 0.00 0.00 37 4464.2
20260502182018 16 35 4.8 4.8 0.00 0.00 0.00 37 4464.2
20260502181516 16 89 1.6 3.2 0.00 0.00 0.00 38 4464.6
20260502181015 15 59 0.0 0.0 0.00 0.00 0.00 38 4464.6
20260502180511 15 322 3.2 4.8 0.00 0.00 0.00 38 4464.6
20260502170430 12 49 0.0 0.0 0.00 0.00 0.00 50 4465.3
20260502163913 12 353 3.2 3.2 0.00 0.00 0.00 50 4465.3
20260502163409 12 353 4.8 4.8 0.00 0.00 0.00 47 4465.3
20260502162908 12 339 0.0 0.0 0.00 0.00 0.00 51 4465.7
20260502162404 12 341 1.6 3.2 0.00 0.00 0.00 52 4465.7
20260502161901 11 342 4.8 4.8 0.00 0.00 0.00 55 4465.7
20260502161357 12 338 4.8 8.0 0.00 0.00 0.00 53 4465.7
20260502160855 11 315 3.2 3.2 0.00 0.00 0.00 54 4465.7
20260502160353 11 337 3.2 4.8 0.00 0.00 0.00 54 4465.7
20260502152328 10 266 3.2 3.2 0.00 0.00 0.00 62 4466.0
20260502151826 9 265 0.0 0.0 0.00 0.00 0.00 62 4466.0
20260502151322 8 266 0.0 3.2 0.00 0.00 0.00 64 4466.0
20260502150820 7 265 0.0 0.0 0.00 0.00 0.00 69 4466.0
20260502150316 7 265 3.2 3.2 0.00 0.00 0.00 71 4466.0
20260502130705 2 263 0.0 0.0 0.00 0.00 0.00 87 4465.7
20260502130202 1 263 0.0 0.0 0.00 0.00 0.00 88 4466.0
20260502123648 1 263 0.0 0.0 0.00 0.00 0.00 88 4465.7
20260502123145 1 263 0.0 0.0 0.00 0.00 0.00 89 4465.7
20260502122641 1 263 0.0 0.0 0.00 0.00 0.00 90 4465.7
20260502122138 1 264 0.0 0.0 0.00 0.00 0.00 90 4465.7
20260502121636 1 263 0.0 0.0 0.00 0.00 0.00 90 4465.7
20260502121133 1 264 0.0 0.0 0.00 0.00 0.00 90 4465.7
20260502120629 2 264 0.0 0.0 0.00 0.00 0.00 89 4465.7
20260502120127 2 264 0.0 0.0 0.00 0.00 0.00 88 4465.7
20260502115624 2 263 0.0 0.0 0.00 0.00 0.00 88 4465.7
20260502115120 1 263 0.0 0.0 0.00 0.00 0.00 88 4465.3
20260502114616 1 263 0.0 0.0 0.00 0.00 0.00 88 4465.7
20260502114114 1 263 0.0 0.0 0.00 0.00 0.00 88 4465.7
20260502113611 1 263 0.0 0.0 0.00 0.00 0.00 88 4465.7
20260502113110 1 263 0.0 0.0 0.00 0.00 0.00 89 4465.7
20260502112607 2 263 0.0 0.0 0.00 0.00 0.00 91 4465.7
20260502112104 2 263 0.0 0.0 0.00 0.00 0.00 90 4465.7
20260502111602 2 263 0.0 0.0 0.00 0.00 0.00 89 4465.3
20260502111059 2 263 0.0 0.0 0.00 0.00 0.00 89 4465.7
20260502110556 2 264 0.0 0.0 0.00 0.00 0.00 88 4465.7
20260502110054 2 264 0.0 0.0 0.00 0.00 0.00 87 4465.3
20260502105551 2 263 0.0 0.0 0.00 0.00 0.00 86 4465.7
20260502105048 2 263 0.0 0.0 0.00 0.00 0.00 83 4465.7
20260502104545 2 263 0.0 0.0 0.00 0.00 0.00 83 4465.3
20260502104043 2 263 0.0 0.0 0.00 0.00 0.00 84 4465.3
20260502103540 2 264 0.0 0.0 0.00 0.00 0.00 84 4465.3
20260502103038 3 263 0.0 0.0 0.00 0.00 0.00 83 4464.9
20260502102534 3 264 0.0 0.0 0.00 0.00 0.00 81 4465.3
20260502102032 3 263 0.0 0.0 0.00 0.00 0.00 83 4464.9
20260502101529 3 263 0.0 0.0 0.00 0.00 0.00 83 4465.3
20260502101028 3 263 3.2 3.2 0.00 0.00 0.00 83 4465.3
20260502100526 3 263 1.6 3.2 0.00 0.00 0.00 82 4464.9
20260502091500 4 263 0.0 0.0 0.00 0.00 0.00 81 4464.9
20260502090958 5 264 0.0 0.0 0.00 0.00 0.00 80 4464.6
20260502090454 4 263 0.0 0.0 0.00 0.00 0.00 79 4464.6
20260502071349 6 264 0.0 0.0 0.00 0.00 0.00 75 4464.2
20260502070847 6 264 0.0 0.0 0.00 0.00 0.00 76 4464.2
20260502070344 6 269 4.8 4.8 0.00 0.00 0.00 77 4464.2
20260502065843 6 270 0.0 3.2 0.00 0.00 0.00 75 4464.2
20260502065341 6 270 0.0 0.0 0.00 0.00 0.00 74 4464.2
20260502064838 6 270 1.6 3.2 0.00 0.00 0.00 73 4464.2
20260502064336 6 270 0.0 0.0 0.00 0.00 0.00 74 4463.9
20260502063833 6 270 1.6 3.2 0.00 0.00 0.00 74 4463.9
20260502063331 6 270 1.6 3.2 0.00 0.00 0.00 74 4463.9
20260502062828 6 270 0.0 0.0 0.00 0.00 0.00 75 4463.9
20260502062326 6 270 0.0 0.0 0.00 0.00 0.00 74 4463.9
20260502061824 7 271 3.2 4.8 0.00 0.00 0.00 72 4463.9
20260502061322 7 271 0.0 0.0 0.00 0.00 0.00 72 4463.9
20260502060817 7 271 3.2 3.2 0.00 0.00 0.00 71 4463.9
20260502060312 8 272 3.2 3.2 0.00 0.00 0.00 71 4463.9
20260502055811 8 271 1.6 3.2 0.00 0.00 0.00 70 4463.4
20260502055308 8 271 1.6 3.2 0.00 0.00 0.00 71 4463.4
20260502054808 8 272 1.6 3.2 0.00 0.00 0.00 72 4463.4
20260502054305 7 272 0.0 3.2 0.00 0.00 0.00 73 4463.9
20260502053802 8 272 0.0 3.2 0.00 0.00 0.00 75 4463.4
20260502053259 8 306 0.0 0.0 0.00 0.00 0.00 78 4463.4
20260502052757 8 306 3.2 3.2 0.00 0.00 0.00 77 4463.4
20260502052255 8 245 0.0 3.2 0.00 0.00 0.00 73 4463.1
20260502051752 9 245 0.0 0.0 0.00 0.00 0.00 65 4463.4
20260502051251 8 245 0.0 0.0 0.00 0.00 0.00 65 4463.4
20260502050746 9 245 0.0 0.0 0.00 0.00 0.00 67 4463.1
20260502050243 9 245 3.2 3.2 0.00 0.00 0.00 65 4463.1
20260502045740 9 245 0.0 0.0 0.00 0.00 0.00 64 4463.1
20260502045237 8 245 0.0 0.0 0.00 0.00 0.00 66 4463.1
20260502044734 9 245 0.0 0.0 0.00 0.00 0.00 65 4463.1
20260502044230 10 245 1.6 3.2 0.00 0.00 0.00 65 4463.1
20260502043727 10 245 3.2 3.2 0.00 0.00 0.00 65 4462.8
20260502043225 10 245 0.0 0.0 0.00 0.00 0.00 65 4463.1
20260502042724 10 245 0.0 0.0 0.00 0.00 0.00 64 4463.1
20260502042222 10 245 1.6 3.2 0.00 0.00 0.00 66 4463.1
20260502041719 10 245 0.0 0.0 0.00 0.00 0.00 65 4462.8
20260502041216 11 245 0.0 0.0 0.00 0.00 0.00 64 4462.8
20260502040713 11 245 0.0 0.0 0.00 0.00 0.00 67 4462.8
20260502040210 11 154 3.2 3.2 0.00 0.00 0.00 65 4462.8
20260502035706 11 153 0.0 0.0 0.00 0.00 0.00 67 4462.4
20260502035203 11 153 0.0 0.0 0.00 0.00 0.00 65 4462.8
20260502034701 11 153 0.0 0.0 0.00 0.00 0.00 64 4462.4
20260502034159 11 153 1.6 3.2 0.00 0.00 0.00 59 4462.8
20260502033656 11 153 3.2 3.2 0.00 0.00 0.00 57 4462.4
20260502033154 12 153 0.0 0.0 0.00 0.00 0.00 58 4462.4
20260502032650 12 152 0.0 0.0 0.00 0.00 0.00 57 4462.4
20260502032146 12 152 0.0 0.0 0.00 0.00 0.00 56 4462.4
20260502031644 13 152 0.0 0.0 0.00 0.00 0.00 56 4462.4
20260502031142 14 152 0.0 3.2 0.00 0.00 0.00 53 4462.4